When you browse on this site, cookies collect data to enhance your experience and personalize the content and advertising you see.
Visit our Privacy Policy to learn more. By continuing to use the site, you agree to this use of cookies and data.
  • în România
  • Lista ţărilor
  • Pe 7 zile
  • Temperatura apei
  • Hartă satelitară
  • Meteo pe hartă
  • Widget-uri
  • user-avatar
    Intrare

    Meteo pe oră la Golub-Dobrzyń

    Astăzi, 18 Februarie, Luni

    Timp Temperatura Precipitaţii Vânt Presiune Umiditate
    00:00 +6°C° 0 mm 1 m/s 760 mmHg 91%
    01:00 +6°C° 0 mm 1 m/s 760 mmHg 91%
    02:00 +6°C° 0 mm 1 m/s 760 mmHg 91%
    03:00 +6°C° 0 mm 1 m/s 760 mmHg 91%
    04:00 +6°C° 0 mm 1 m/s 760 mmHg 92%
    05:00 +6°C° 0 mm 1 m/s 760 mmHg 92%
    06:00 +6°C° 0 mm 1 m/s 760 mmHg 92%
    07:00 +5°C° 0 mm 1 m/s 760 mmHg 92%
    08:00 +5°C° 0 mm 2 m/s 760 mmHg 89%
    09:00 +6°C° 0 mm 2 m/s 759 mmHg 86%
    10:00 +7°C° 0 mm 3 m/s 759 mmHg 83%
    11:00 +8°C° 0 mm 3 m/s 759 mmHg 79%
    12:00 +9°C° 0 mm 3 m/s 759 mmHg 75%
    13:00 +9°C° 0 mm 3 m/s 759 mmHg 71%
    14:00 +9°C° 0 mm 3 m/s 758 mmHg 72%
    15:00 +9°C° 0 mm 3 m/s 758 mmHg 72%
    16:00 +9°C° 0 mm 3 m/s 757 mmHg 73%
    17:00 +8°C° 0 mm 3 m/s 757 mmHg 76%
    18:00 +7°C° 0 mm 3 m/s 757 mmHg 80%
    19:00 +5°C° 0 mm 3 m/s 757 mmHg 83%
    20:00 +4°C° 0 mm 3 m/s 756 mmHg 82%
    21:00 +4°C° 0 mm 3 m/s 756 mmHg 82%
    22:00 +3°C° 0 mm 3 m/s 756 mmHg 81%
    23:00 +3°C° 0 mm 3 m/s 755 mmHg 80%

    Mâine, 19 Februarie, Marţi

    Timp Temperatura Precipitaţii Vânt Presiune Umiditate
    00:00 +3°C° 0 mm 3 m/s 755 mmHg 79%
    01:00 +2°C° 0 mm 3 m/s 755 mmHg 79%
    02:00 +2°C° 0 mm 3 m/s 754 mmHg 80%
    03:00 +2°C° 0 mm 3 m/s 754 mmHg 81%
    04:00 +1°C° 0 mm 3 m/s 754 mmHg 82%
    05:00 +1°C° 0 mm 3 m/s 753 mmHg 82%
    06:00 +1°C° 0 mm 3 m/s 753 mmHg 83%
    07:00 0°C° 0 mm 4 m/s 753 mmHg 83%
    08:00 +1°C° 0 mm 4 m/s 752 mmHg 77%
    09:00 +2°C° 0 mm 5 m/s 752 mmHg 71%
    10:00 +5°C° 0 mm 5 m/s 752 mmHg 65%
    11:00 +5°C° 0 mm 6 m/s 752 mmHg 62%
    12:00 +7°C° 0 mm 6 m/s 752 mmHg 60%
    13:00 +9°C° 0 mm 6 m/s 751 mmHg 57%
    14:00 +8°C° 0 mm 6 m/s 751 mmHg 61%
    15:00 +8°C° 0 mm 5 m/s 751 mmHg 65%
    16:00 +8°C° 0 mm 5 m/s 751 mmHg 69%
    17:00 +7°C° 0.3 mm 5 m/s 751 mmHg 74%
    18:00 +7°C° 0.3 mm 5 m/s 751 mmHg 79%
    19:00 +6°C° 0.3 mm 5 m/s 752 mmHg 84%
    20:00 +6°C° 0 mm 5 m/s 751 mmHg 83%
    21:00 +5°C° 0 mm 5 m/s 751 mmHg 81%
    22:00 +5°C° 0 mm 5 m/s 751 mmHg 80%
    23:00 +3°C° 0 mm 5 m/s 751 mmHg 82%

    Poimâine, 20 Februarie, Miercuri

    Timp Temperatura Precipitaţii Vânt Presiune Umiditate
    00:00 +3°C° 0 mm 5 m/s 752 mmHg 84%
    01:00 +3°C° 0 mm 5 m/s 752 mmHg 86%
    02:00 +2°C° 0 mm 5 m/s 752 mmHg 86%
    03:00 +2°C° 0 mm 5 m/s 752 mmHg 86%
    04:00 +2°C° 0 mm 5 m/s 752 mmHg 86%
    05:00 +2°C° 0.1 mm 6 m/s 752 mmHg 84%
    06:00 +2°C° 0.1 mm 6 m/s 752 mmHg 82%
    07:00 +2°C° 0.1 mm 6 m/s 753 mmHg 79%
    08:00 +3°C° 0.1 mm 7 m/s 753 mmHg 76%
    09:00 +3°C° 0.1 mm 7 m/s 754 mmHg 72%
    10:00 +4°C° 0.1 mm 8 m/s 754 mmHg 68%
    11:00 +4°C° 0 mm 8 m/s 754 mmHg 66%
    12:00 +5°C° 0 mm 8 m/s 755 mmHg 63%
    13:00 +5°C° 0 mm 8 m/s 755 mmHg 60%
    14:00 +5°C° 0 mm 8 m/s 755 mmHg 61%
    15:00 +5°C° 0 mm 7 m/s 755 mmHg 62%
    16:00 +5°C° 0 mm 7 m/s 756 mmHg 63%
    17:00 +4°C° 0 mm 6 m/s 756 mmHg 68%
    18:00 +5°C° 0 mm 5 m/s 756 mmHg 72%
    19:00 +4°C° 0 mm 4 m/s 757 mmHg 77%
    20:00 +4°C° 0 mm 4 m/s 757 mmHg 80%
    21:00 +4°C° 0 mm 4 m/s 757 mmHg 83%
    22:00 +4°C° 0 mm 3 m/s 757 mmHg 86%
    23:00 +4°C° 0.2 mm 3 m/s 757 mmHg 89%

    21 Februarie, Joi

    Timp Temperatura Precipitaţii Vânt Presiune Umiditate
    00:00 +4°C° 0.2 mm 3 m/s 757 mmHg 91%
    01:00 +4°C° 0.2 mm 3 m/s 757 mmHg 93%
    02:00 +4°C° 0.3 mm 4 m/s 757 mmHg 93%
    03:00 +4°C° 0.3 mm 4 m/s 757 mmHg 93%
    04:00 +4°C° 0.3 mm 4 m/s 756 mmHg 93%
    05:00 +4°C° 0.4 mm 4 m/s 756 mmHg 92%
    06:00 +4°C° 0.4 mm 4 m/s 756 mmHg 92%
    07:00 +3°C° 0.4 mm 5 m/s 756 mmHg 92%
    08:00 +3°C° 0.6 mm 5 m/s 756 mmHg 91%
    09:00 +5°C° 0.6 mm 5 m/s 756 mmHg 90%
    10:00 +5°C° 0.6 mm 5 m/s 755 mmHg 89%
    11:00 +5°C° 1.1 mm 5 m/s 755 mmHg 90%
    12:00 +5°C° 1.1 mm 5 m/s 756 mmHg 90%
    13:00 +6°C° 1.1 mm 5 m/s 756 mmHg 91%
    14:00 +6°C° 0.1 mm 5 m/s 756 mmHg 89%
    15:00 +6°C° 0.1 mm 5 m/s 756 mmHg 87%
    16:00 +7°C° 0.1 mm 5 m/s 756 mmHg 84%
    17:00 +7°C° 0.1 mm 5 m/s 757 mmHg 86%
    18:00 +6°C° 0.1 mm 5 m/s 757 mmHg 87%
    19:00 +6°C° 0.1 mm 5 m/s 758 mmHg 89%
    20:00 +3°C° 0.1 mm 5 m/s 759 mmHg 87%
    21:00 +2°C° 0.1 mm 6 m/s 759 mmHg 84%
    22:00 -1°C° 0.1 mm 6 m/s 760 mmHg 82%
    23:00 0°C° 0 mm 5 m/s 761 mmHg 79%

    22 Februarie, Vineri

    Timp Temperatura Precipitaţii Vânt Presiune Umiditate
    00:00 -1°C° 0 mm 5 m/s 762 mmHg 76%
    01:00 -1°C° 0 mm 4 m/s 763 mmHg 73%
    02:00 -2°C° 0 mm 4 m/s 764 mmHg 71%
    03:00 -2°C° 0 mm 4 m/s 765 mmHg 69%
    04:00 -3°C° 0 mm 4 m/s 766 mmHg 67%
    05:00 -3°C° 0 mm 4 m/s 766 mmHg 64%
    06:00 -3°C° 0 mm 4 m/s 767 mmHg 62%
    07:00 -4°C° 0 mm 4 m/s 768 mmHg 60%
    08:00 -3°C° 0 mm 4 m/s 769 mmHg 56%
    09:00 -3°C° 0 mm 4 m/s 770 mmHg 53%
    10:00 -2°C° 0 mm 4 m/s 771 mmHg 50%
    11:00 -2°C° 0 mm 4 m/s 771 mmHg 46%
    12:00 0°C° 0 mm 3 m/s 772 mmHg 43%
    13:00 +1°C° 0 mm 3 m/s 772 mmHg 39%
    14:00 0°C° 0 mm 3 m/s 773 mmHg 39%
    15:00 +1°C° 0 mm 2 m/s 773 mmHg 39%
    16:00 +1°C° 0 mm 2 m/s 773 mmHg 38%
    17:00 -1°C° 0 mm 2 m/s 774 mmHg 42%
    18:00 -1°C° 0 mm 2 m/s 774 mmHg 46%
    19:00 -2°C° 0 mm 2 m/s 774 mmHg 49%
    20:00 0°C° 0 mm 1 m/s 775 mmHg 50%
    21:00 0°C° 0 mm 1 m/s 775 mmHg 51%
    22:00 0°C° 0 mm 1 m/s 775 mmHg 52%
    23:00 -2°C° 0 mm 2 m/s 775 mmHg 52%

    23 Februarie, Sâmbătă

    Timp Temperatura Precipitaţii Vânt Presiune Umiditate
    00:00 -2°C° 0 mm 2 m/s 775 mmHg 52%
    01:00 -2°C° 0 mm 2 m/s 775 mmHg 52%
    02:00 -2°C° 0 mm 3 m/s 774 mmHg 52%
    03:00 -2°C° 0 mm 3 m/s 774 mmHg 51%
    04:00 -2°C° 0 mm 3 m/s 774 mmHg 51%
    05:00 -2°C° 0 mm 3 m/s 773 mmHg 51%
    06:00 -2°C° 0 mm 3 m/s 773 mmHg 52%
    07:00 -2°C° 0 mm 2 m/s 773 mmHg 53%
    08:00 -1°C° 0 mm 3 m/s 772 mmHg 50%
    09:00 -1°C° 0 mm 4 m/s 772 mmHg 48%
    10:00 0°C° 0 mm 5 m/s 771 mmHg 45%
    11:00 0°C° 0 mm 5 m/s 771 mmHg 47%
    12:00 +1°C° 0 mm 5 m/s 770 mmHg 49%
    13:00 +2°C° 0 mm 5 m/s 770 mmHg 51%
    14:00 +3°C° 0 mm 4 m/s 769 mmHg 59%
    15:00 +3°C° 0 mm 4 m/s 769 mmHg 66%
    16:00 +3°C° 0 mm 4 m/s 768 mmHg 74%
    17:00 +3°C° 0 mm 3 m/s 768 mmHg 81%
    18:00 +3°C° 0 mm 3 m/s 768 mmHg 87%
    19:00 +2°C° 0 mm 3 m/s 768 mmHg 93%
    20:00 +3°C° 0 mm 2 m/s 768 mmHg 94%
    21:00 +3°C° 0 mm 2 m/s 768 mmHg 95%
    22:00 +3°C° 0 mm 2 m/s 768 mmHg 96%
    23:00 +3°C° 0 mm 2 m/s 768 mmHg 96%
    Arată mai mult